TimeEST,TemperatureF,Dew PointF,Humidity,Sea Level PressureIn,VisibilityMPH,Wind Direction,Wind SpeedMPH,Gust SpeedMPH,PrecipitationIn,Events,Conditions,WindDirDegrees,DateUTC
12:53 AM,36.0,27.0,70,30.02,10.0,West,6.9,-,N/A,,Clear,280,2014-01-13 05:53:00
1:53 AM,37.0,27.0,67,30.06,10.0,West,10.4,-,N/A,,Clear,270,2014-01-13 06:53:00
2:53 AM,36.0,27.0,70,30.07,10.0,West,5.8,-,N/A,,Clear,260,2014-01-13 07:53:00
3:53 AM,35.1,27.0,72,30.10,10.0,West,4.6,-,N/A,,Clear,260,2014-01-13 08:53:00
4:53 AM,35.1,27.0,72,30.12,10.0,Calm,Calm,-,N/A,,Clear,0,2014-01-13 09:53:00
5:53 AM,30.0,25.0,82,30.12,10.0,SW,4.6,-,N/A,,Clear,220,2014-01-13 10:53:00
6:53 AM,28.0,25.0,88,30.14,10.0,WSW,3.5,-,N/A,,Clear,240,2014-01-13 11:53:00
7:53 AM,33.1,28.0,82,30.16,10.0,SW,4.6,-,N/A,,Clear,220,2014-01-13 12:53:00
8:53 AM,39.9,30.9,70,30.15,10.0,WSW,4.6,-,N/A,,Clear,250,2014-01-13 13:53:00
9:53 AM,44.1,30.9,60,30.17,10.0,WSW,12.7,-,N/A,,Clear,240,2014-01-13 14:53:00
10:53 AM,45.0,33.1,63,30.16,10.0,SW,13.8,-,N/A,,Clear,220,2014-01-13 15:53:00
11:53 AM,45.0,34.0,65,30.12,10.0,SW,12.7,19.6,N/A,,Clear,230,2014-01-13 16:53:00
12:53 PM,46.0,36.0,68,30.10,10.0,SSW,18.4,-,N/A,,Clear,210,2014-01-13 17:53:00
1:53 PM,46.9,37.0,68,30.11,10.0,SW,15.0,21.9,N/A,,Clear,220,2014-01-13 18:53:00
2:53 PM,46.9,37.9,71,30.11,10.0,SW,12.7,-,N/A,,Clear,220,2014-01-13 19:53:00
3:53 PM,45.0,39.0,80,30.08,10.0,SSW,10.4,-,N/A,,Clear,210,2014-01-13 20:53:00
4:53 PM,43.0,39.0,86,30.08,10.0,SSW,10.4,-,N/A,,Clear,210,2014-01-13 21:53:00
5:53 PM,46.0,42.1,86,30.08,10.0,SSW,13.8,-,N/A,,Clear,200,2014-01-13 22:53:00
6:53 PM,46.9,42.1,83,30.07,10.0,South,12.7,-,N/A,,Clear,180,2014-01-13 23:53:00
7:53 PM,46.9,43.0,86,30.07,10.0,SSW,15.0,21.9,N/A,,Clear,200,2014-01-14 00:53:00
8:53 PM,46.9,43.0,86,30.04,10.0,South,13.8,-,N/A,,Clear,190,2014-01-14 01:53:00
9:53 PM,48.0,44.1,86,30.01,10.0,South,13.8,23.0,N/A,,Clear,180,2014-01-14 02:53:00
10:53 PM,48.0,44.1,86,29.99,10.0,South,15.0,-,N/A,,Clear,190,2014-01-14 03:53:00
11:53 PM,50.0,45.0,83,29.97,10.0,South,17.3,27.6,N/A,,Partly Cloudy,190,2014-01-14 04:53:00